Location: Barrio de Canyet
(41.4665°N, 2.2381°E)
Time: 19:25:07
(UTC+00:00)

ERS-1 Rocket - Pass Details

Date: 09 April 2020
Orbit: 754 x 757 km, 98.5° (Epoch: 31 May)

Event Time Altitude Azimuth Distance (km) Brightness Sun altitude
Exits shadow 20:47:02 34° 51° (NE) 1,239 3.9 -24.8°
Drops below altitude 10° 20:50:53 10° 4° (N) 2,289 5.9 -25.4°
Sets 20:53:20 0° 356° (N) 3,218 6.8 -25.8°
